Time,TemperatureF,DewpointF,PressureIn,WindDirection,WindDirectionDegrees,WindSpeedMPH,WindSpeedGustMPH,Humidity,HourlyPrecipIn,Conditions,Clouds,dailyrainin,SolarRadiationWatts/m^2,SoftwareType,DateUTC
2013-10-18 00:01:00,72.0,70.7,29.89,SE,133,0.0,0.0,96,0.00,,,0.00,0.0,meteohub,2013-10-18 04:01:00,
2013-10-18 00:02:00,72.1,70.9,29.89,SE,133,0.0,0.0,96,0.00,,,0.00,0.0,meteohub,2013-10-18 04:02:00,
2013-10-18 00:07:00,72.3,71.1,29.89,SE,133,0.0,2.0,96,0.00,,,0.00,0.0,meteohub,2013-10-18 04:07:00,
2013-10-18 00:12:00,72.5,71.1,29.89,SE,135,0.0,2.0,95,0.00,,,0.00,0.0,meteohub,2013-10-18 04:12:00,
2013-10-18 00:17:00,72.9,71.4,29.88,SE,134,0.0,1.0,95,0.00,,,0.00,0.0,meteohub,2013-10-18 04:17:00,
2013-10-18 00:22:00,73.0,71.6,29.88,SE,134,1.0,2.0,95,0.00,,,0.00,0.0,meteohub,2013-10-18 04:22:00,
2013-10-18 00:27:00,73.2,71.4,29.89,SSW,211,0.0,2.0,94,0.00,,,0.00,0.0,meteohub,2013-10-18 04:27:00,
2013-10-18 00:32:00,73.2,71.4,29.88,SSW,211,0.0,3.0,94,0.00,,,0.00,0.0,meteohub,2013-10-18 04:32:00,
2013-10-18 00:37:00,73.4,71.2,29.88,SSW,204,0.0,3.0,93,0.00,,,0.00,0.0,meteohub,2013-10-18 04:37:00,
2013-10-18 00:42:00,73.6,71.4,29.88,South,171,0.0,3.0,93,0.00,,,0.00,0.0,meteohub,2013-10-18 04:42:00,
2013-10-18 00:47:00,73.6,71.4,29.88,South,171,0.0,3.0,93,0.00,,,0.00,0.0,meteohub,2013-10-18 04:47:00,
2013-10-18 00:52:00,73.6,71.4,29.88,South,175,0.0,4.0,93,0.00,,,0.00,0.0,meteohub,2013-10-18 04:52:00,
2013-10-18 00:57:00,73.4,70.9,29.88,South,175,0.0,4.0,92,0.00,,,0.00,0.0,meteohub,2013-10-18 04:57:00,
2013-10-18 01:02:00,73.4,70.9,29.87,SE,136,0.0,4.0,92,0.00,,,0.00,0.0,meteohub,2013-10-18 05:02:00,
2013-10-18 01:07:00,73.4,70.9,29.87,SE,136,0.0,3.0,92,0.00,,,0.00,0.0,meteohub,2013-10-18 05:07:00,
2013-10-18 01:12:00,73.2,70.7,29.87,South,182,0.0,2.0,92,0.00,,,0.00,0.0,meteohub,2013-10-18 05:12:00,
2013-10-18 01:17:00,73.2,70.7,29.87,South,182,0.0,2.0,92,0.00,,,0.00,0.0,meteohub,2013-10-18 05:17:00,
2013-10-18 01:22:00,73.0,70.5,29.88,South,182,0.0,1.0,92,0.00,,,0.00,0.0,meteohub,2013-10-18 05:22:00,
2013-10-18 01:27:00,73.0,70.5,29.88,South,182,0.0,1.0,92,0.00,,,0.00,0.0,meteohub,2013-10-18 05:27:00,
2013-10-18 01:32:00,73.0,70.5,29.88,South,182,0.0,1.0,92,0.00,,,0.00,0.0,meteohub,2013-10-18 05:32:00,
2013-10-18 01:37:00,72.9,70.7,29.88,South,182,0.0,1.0,93,0.00,,,0.00,0.0,meteohub,2013-10-18 05:37:00,
2013-10-18 01:42:00,72.7,70.5,29.88,South,182,0.0,0.0,93,0.00,,,0.00,0.0,meteohub,2013-10-18 05:42:00,
2013-10-18 01:47:00,72.3,70.2,29.88,South,182,0.0,0.0,93,0.00,,,0.00,0.0,meteohub,2013-10-18 05:47:00,
2013-10-18 01:52:00,72.1,70.0,29.87,South,182,0.0,0.0,93,0.00,,,0.00,0.0,meteohub,2013-10-18 05:52:00,
2013-10-18 01:57:00,72.1,70.0,29.88,South,182,0.0,0.0,93,0.00,,,0.00,0.0,meteohub,2013-10-18 05:57:00,
2013-10-18 02:02:00,72.1,70.0,29.88,South,182,0.0,1.0,93,0.00,,,0.00,0.0,meteohub,2013-10-18 06:02:00,
2013-10-18 02:07:00,72.0,70.2,29.88,South,182,0.0,1.0,94,0.00,,,0.00,0.0,meteohub,2013-10-18 06:07:00,
2013-10-18 02:12:00,72.1,70.3,29.88,SSE,168,1.0,1.0,94,0.00,,,0.00,0.0,meteohub,2013-10-18 06:12:00,
2013-10-18 02:17:00,72.1,70.3,29.87,SW,219,0.0,4.0,94,0.00,,,0.00,0.0,meteohub,2013-10-18 06:17:00,
2013-10-18 02:22:00,72.3,70.2,29.88,SSE,163,0.0,4.0,93,0.00,,,0.00,0.0,meteohub,2013-10-18 06:22:00,
2013-10-18 02:27:00,72.3,70.2,29.88,South,171,0.0,5.0,93,0.00,,,0.00,0.0,meteohub,2013-10-18 06:27:00,
2013-10-18 02:32:00,72.3,70.2,29.88,South,171,0.0,7.0,93,0.00,,,0.00,0.0,meteohub,2013-10-18 06:32:00,
2013-10-18 02:37:00,72.3,70.2,29.88,South,171,0.0,7.0,93,0.00,,,0.00,0.0,meteohub,2013-10-18 06:37:00,
2013-10-18 02:42:00,72.1,70.0,29.87,South,171,0.0,3.0,93,0.00,,,0.00,0.0,meteohub,2013-10-18 06:42:00,
2013-10-18 02:47:00,72.1,70.0,29.88,South,171,0.0,3.0,93,0.00,,,0.00,0.0,meteohub,2013-10-18 06:47:00,
2013-10-18 02:52:00,72.1,70.0,29.88,South,171,0.0,3.0,93,0.00,,,0.00,0.0,meteohub,2013-10-18 06:52:00,
2013-10-18 02:57:00,72.0,69.8,29.88,South,171,0.0,3.0,93,0.00,,,0.00,0.0,meteohub,2013-10-18 06:57:00,
2013-10-18 03:02:00,72.0,69.8,29.88,South,171,0.0,1.0,93,0.00,,,0.00,0.0,meteohub,2013-10-18 07:02:00,
2013-10-18 03:07:00,71.8,69.6,29.88,South,171,0.0,1.0,93,0.00,,,0.00,0.0,meteohub,2013-10-18 07:07:00,
2013-10-18 03:12:00,71.8,70.0,29.88,South,171,0.0,1.0,94,0.00,,,0.00,0.0,meteohub,2013-10-18 07:12:00,
2013-10-18 03:17:00,71.6,69.8,29.88,South,171,0.0,1.0,94,0.00,,,0.00,0.0,meteohub,2013-10-18 07:17:00,
2013-10-18 03:22:00,71.4,69.6,29.88,South,171,0.0,1.0,94,0.00,,,0.00,0.0,meteohub,2013-10-18 07:22:00,
2013-10-18 03:27:00,71.4,69.6,29.88,South,171,1.0,1.0,94,0.00,,,0.00,0.0,meteohub,2013-10-18 07:27:00,
2013-10-18 03:32:00,71.4,69.6,29.88,South,171,0.0,2.0,94,0.00,,,0.00,0.0,meteohub,2013-10-18 07:32:00,
2013-10-18 03:37:00,71.4,69.6,29.88,South,171,0.0,2.0,94,0.00,,,0.00,0.0,meteohub,2013-10-18 07:37:00,
2013-10-18 03:42:00,71.4,69.6,29.88,South,171,0.0,2.0,94,0.00,,,0.00,0.0,meteohub,2013-10-18 07:42:00,
2013-10-18 03:47:00,71.3,70.0,29.88,South,171,0.0,-999.0,94,-99.99,,,0.00,0,weatherlink.com 1.10,2013-10-18 07:47:00,
2013-10-18 03:52:00,71.2,69.4,29.88,South,171,0.0,2.0,94,0.00,,,0.00,0.0,meteohub,2013-10-18 07:52:00,
2013-10-18 03:57:00,71.2,69.4,29.88,South,171,0.0,2.0,94,0.00,,,0.00,0.0,meteohub,2013-10-18 07:57:00,
2013-10-18 04:02:00,71.1,69.3,29.88,South,171,0.0,2.0,94,0.00,,,0.00,0.0,meteohub,2013-10-18 08:02:00,
2013-10-18 04:07:00,71.1,69.3,29.88,South,171,0.0,1.0,94,0.00,,,0.00,0.0,meteohub,2013-10-18 08:07:00,
2013-10-18 04:12:00,70.9,69.1,29.88,South,171,0.0,1.0,94,0.00,,,0.00,0.0,meteohub,2013-10-18 08:12:00,
2013-10-18 04:17:00,70.9,69.1,29.88,South,171,0.0,1.0,94,0.00,,,0.00,0.0,meteohub,2013-10-18 08:17:00,
2013-10-18 04:22:00,70.7,68.9,29.88,South,171,0.0,0.0,94,0.00,,,0.00,0.0,meteohub,2013-10-18 08:22:00,
2013-10-18 04:27:00,70.5,68.7,29.88,South,171,0.0,0.0,94,0.00,,,0.00,0.0,meteohub,2013-10-18 08:27:00,
2013-10-18 04:32:00,70.3,68.9,29.88,South,171,0.0,0.0,95,0.00,,,0.00,0.0,meteohub,2013-10-18 08:32:00,
2013-10-18 04:37:00,70.3,68.9,29.88,South,171,0.0,0.0,95,0.00,,,0.00,0.0,meteohub,2013-10-18 08:37:00,
2013-10-18 04:42:00,70.2,68.7,29.88,South,171,0.0,0.0,95,0.00,,,0.00,0.0,meteohub,2013-10-18 08:42:00,
2013-10-18 04:47:00,70.2,68.7,29.88,South,171,0.0,0.0,95,0.00,,,0.00,0.0,meteohub,2013-10-18 08:47:00,
2013-10-18 04:52:00,70.0,68.5,29.88,South,171,0.0,0.0,95,0.00,,,0.00,0.0,meteohub,2013-10-18 08:52:00,
2013-10-18 04:57:00,69.8,68.4,29.88,South,171,0.0,0.0,95,0.00,,,0.00,0.0,meteohub,2013-10-18 08:57:00,
2013-10-18 05:02:00,69.6,68.2,29.88,South,171,0.0,0.0,95,0.00,,,0.00,0.0,meteohub,2013-10-18 09:02:00,
2013-10-18 05:07:00,69.4,68.0,29.88,South,171,0.0,0.0,95,0.00,,,0.00,0.0,meteohub,2013-10-18 09:07:00,
2013-10-18 05:12:00,69.4,68.0,29.88,South,171,0.0,0.0,95,0.00,,,0.00,0.0,meteohub,2013-10-18 09:12:00,
2013-10-18 05:17:00,69.3,67.8,29.88,South,171,0.0,0.0,95,0.00,,,0.00,0.0,meteohub,2013-10-18 09:17:00,
2013-10-18 05:22:00,69.3,68.0,29.88,South,171,0.0,0.0,96,0.00,,,0.00,0.0,meteohub,2013-10-18 09:22:00,
2013-10-18 05:27:00,69.1,67.8,29.89,South,171,0.0,0.0,96,0.00,,,0.00,0.0,meteohub,2013-10-18 09:27:00,
2013-10-18 05:32:00,69.1,67.8,29.89,South,171,0.0,0.0,96,0.00,,,0.00,0.0,meteohub,2013-10-18 09:32:00,
2013-10-18 05:37:00,68.9,67.6,29.89,South,171,0.0,0.0,96,0.00,,,0.00,0.0,meteohub,2013-10-18 09:37:00,
2013-10-18 05:42:00,68.7,67.5,29.89,South,171,0.0,0.0,96,0.00,,,0.00,0.0,meteohub,2013-10-18 09:42:00,
2013-10-18 05:47:00,68.9,67.6,29.89,South,171,0.0,0.0,96,0.00,,,0.00,0.0,meteohub,2013-10-18 09:47:00,
2013-10-18 05:52:00,68.7,67.5,29.89,South,171,0.0,0.0,96,0.00,,,0.00,0.0,meteohub,2013-10-18 09:52:00,
2013-10-18 05:57:00,68.7,67.5,29.89,South,171,0.0,0.0,96,0.00,,,0.00,0.0,meteohub,2013-10-18 09:57:00,
2013-10-18 06:02:00,68.7,67.5,29.89,South,171,0.0,0.0,96,0.00,,,0.00,0.0,meteohub,2013-10-18 10:02:00,
2013-10-18 06:07:00,68.7,67.5,29.89,South,171,0.0,0.0,96,0.00,,,0.00,0.0,meteohub,2013-10-18 10:07:00,
2013-10-18 06:12:00,68.5,67.3,29.89,South,171,0.0,0.0,96,0.00,,,0.00,0.0,meteohub,2013-10-18 10:12:00,
2013-10-18 06:17:00,68.5,67.3,29.89,South,171,0.0,0.0,96,0.00,,,0.00,0.0,meteohub,2013-10-18 10:17:00,
2013-10-18 06:22:00,68.5,67.3,29.90,South,171,0.0,0.0,96,0.00,,,0.00,0.0,meteohub,2013-10-18 10:22:00,
2013-10-18 06:27:00,68.4,67.1,29.90,South,171,0.0,0.0,96,0.00,,,0.00,0.0,meteohub,2013-10-18 10:27:00,
2013-10-18 06:32:00,68.3,67.0,29.90,South,171,0.0,-999.0,96,-99.99,,,0.00,0,weatherlink.com 1.10,2013-10-18 10:32:00,
2013-10-18 06:37:00,68.4,67.1,29.90,South,171,0.0,0.0,96,0.00,,,0.00,0.0,meteohub,2013-10-18 10:37:00,
2013-10-18 06:42:00,68.2,66.9,29.90,South,171,0.0,0.0,96,0.00,,,0.00,0.0,meteohub,2013-10-18 10:42:00,
2013-10-18 06:47:00,68.2,66.9,29.90,South,171,0.0,0.0,96,0.00,,,0.00,0.0,meteohub,2013-10-18 10:47:00,
2013-10-18 06:53:00,68.0,66.7,29.90,South,171,0.0,0.0,96,0.00,,,0.00,0.0,meteohub,2013-10-18 10:53:00,
2013-10-18 06:58:00,68.0,66.7,29.90,South,171,0.0,0.0,96,0.00,,,0.00,0.0,meteohub,2013-10-18 10:58:00,
2013-10-18 07:03:00,68.0,67.1,29.91,South,171,0.0,0.0,97,0.00,,,0.00,0.0,meteohub,2013-10-18 11:03:00,
2013-10-18 07:08:00,67.8,66.9,29.91,South,171,0.0,0.0,97,0.00,,,0.00,0.0,meteohub,2013-10-18 11:08:00,
2013-10-18 07:13:00,67.8,66.9,29.91,South,171,0.0,0.0,97,0.00,,,0.00,0.0,meteohub,2013-10-18 11:13:00,
2013-10-18 07:18:00,67.8,66.9,29.91,South,171,0.0,0.0,97,0.00,,,0.00,0.0,meteohub,2013-10-18 11:18:00,
2013-10-18 07:23:00,67.8,66.9,29.91,South,171,0.0,0.0,97,0.00,,,0.00,0.0,meteohub,2013-10-18 11:23:00,
2013-10-18 07:28:00,67.8,66.9,29.91,South,171,0.0,0.0,97,0.00,,,0.00,0.0,meteohub,2013-10-18 11:28:00,
2013-10-18 07:33:00,67.6,66.7,29.92,South,171,0.0,0.0,97,0.00,,,0.00,5.0,meteohub,2013-10-18 11:33:00,
2013-10-18 07:38:00,67.6,66.7,29.92,South,171,0.0,0.0,97,0.00,,,0.00,7.0,meteohub,2013-10-18 11:38:00,
2013-10-18 07:43:00,67.6,66.7,29.92,South,171,0.0,0.0,97,0.00,,,0.00,11.0,meteohub,2013-10-18 11:43:00,
2013-10-18 07:48:00,67.6,66.7,29.92,South,171,0.0,0.0,97,0.00,,,0.00,14.0,meteohub,2013-10-18 11:48:00,
2013-10-18 07:53:00,67.8,66.9,29.92,South,171,0.0,0.0,97,0.00,,,0.00,18.0,meteohub,2013-10-18 11:53:00,
2013-10-18 07:58:00,68.0,67.1,29.92,South,171,0.0,1.0,97,0.00,,,0.00,21.0,meteohub,2013-10-18 11:58:00,
2013-10-18 08:03:00,68.2,67.3,29.93,South,171,0.0,1.0,97,0.00,,,0.00,25.0,meteohub,2013-10-18 12:03:00,
2013-10-18 08:08:00,68.2,67.3,29.93,South,171,0.0,1.0,97,0.00,,,0.00,28.0,meteohub,2013-10-18 12:08:00,
2013-10-18 08:13:00,68.4,67.5,29.93,South,171,0.0,0.0,97,0.00,,,0.00,35.0,meteohub,2013-10-18 12:13:00,
2013-10-18 08:18:00,68.5,67.6,29.93,South,171,0.0,0.0,97,0.00,,,0.00,72.0,meteohub,2013-10-18 12:18:00,
2013-10-18 08:23:00,68.7,67.8,29.94,South,171,0.0,0.0,97,0.00,,,0.00,121.0,meteohub,2013-10-18 12:23:00,
2013-10-18 08:28:00,69.3,68.4,29.94,South,171,0.0,0.0,97,0.00,,,0.00,135.0,meteohub,2013-10-18 12:28:00,
2013-10-18 08:33:00,69.8,68.9,29.94,South,171,0.0,1.0,97,0.00,,,0.00,151.0,meteohub,2013-10-18 12:33:00,
2013-10-18 08:38:00,70.2,69.3,29.94,South,171,1.0,1.0,97,0.00,,,0.00,167.0,meteohub,2013-10-18 12:38:00,
2013-10-18 08:43:00,70.9,70.0,29.95,South,171,0.0,1.0,97,0.00,,,0.00,181.0,meteohub,2013-10-18 12:43:00,
2013-10-18 08:48:00,71.2,70.0,29.94,South,171,0.0,1.0,96,0.00,,,0.00,197.0,meteohub,2013-10-18 12:48:00,
2013-10-18 08:53:00,72.0,70.5,29.94,South,171,0.0,1.0,95,0.00,,,0.00,214.0,meteohub,2013-10-18 12:53:00,
2013-10-18 08:58:00,72.5,70.7,29.94,South,171,0.0,1.0,94,0.00,,,0.00,234.0,meteohub,2013-10-18 12:58:00,
2013-10-18 09:03:00,73.0,70.9,29.95,SSW,193,0.0,1.0,93,0.00,,,0.00,253.0,meteohub,2013-10-18 13:03:00,
2013-10-18 09:08:00,73.6,71.1,29.95,SSE,159,0.0,1.0,92,0.00,,,0.00,271.0,meteohub,2013-10-18 13:08:00,
2013-10-18 09:13:00,74.1,71.2,29.95,SSE,159,0.0,2.0,91,0.00,,,0.00,287.0,meteohub,2013-10-18 13:13:00,
2013-10-18 09:18:00,74.8,71.4,29.95,SSE,156,0.0,2.0,89,0.00,,,0.00,301.0,meteohub,2013-10-18 13:18:00,
2013-10-18 09:23:00,75.6,71.8,29.95,WSW,248,0.0,2.0,88,0.00,,,0.00,318.0,meteohub,2013-10-18 13:23:00,
2013-10-18 09:28:00,75.7,71.6,29.95,WSW,248,0.0,1.0,87,0.00,,,0.00,336.0,meteohub,2013-10-18 13:28:00,
2013-10-18 09:33:00,76.3,72.1,29.95,SE,126,0.0,1.0,87,0.00,,,0.00,352.0,meteohub,2013-10-18 13:33:00,
2013-10-18 09:38:00,76.6,72.5,29.95,SE,127,0.0,1.0,87,0.00,,,0.00,367.0,meteohub,2013-10-18 13:38:00,
2013-10-18 09:43:00,77.0,72.1,29.95,SE,142,0.0,1.0,85,0.00,,,0.00,385.0,meteohub,2013-10-18 13:43:00,
2013-10-18 09:48:00,77.2,72.3,29.95,SE,142,0.0,1.0,85,0.00,,,0.00,401.0,meteohub,2013-10-18 13:48:00,
2013-10-18 09:53:00,77.4,72.1,29.95,SSE,165,0.0,1.0,84,0.00,,,0.00,413.0,meteohub,2013-10-18 13:53:00,
2013-10-18 09:58:00,77.5,72.3,29.95,SSE,163,0.0,4.0,84,0.00,,,0.00,431.0,meteohub,2013-10-18 13:58:00,
2013-10-18 10:03:00,77.5,72.0,29.96,SSE,160,0.0,4.0,83,0.00,,,0.00,443.0,meteohub,2013-10-18 14:03:00,
2013-10-18 10:08:00,77.9,72.3,29.96,South,171,0.0,2.0,83,0.00,,,0.00,459.0,meteohub,2013-10-18 14:08:00,
2013-10-18 10:13:00,78.1,72.1,29.96,SE,142,0.0,2.0,82,0.00,,,0.00,473.0,meteohub,2013-10-18 14:13:00,
2013-10-18 10:18:00,78.3,72.7,29.96,SE,144,0.0,2.0,83,0.00,,,0.00,489.0,meteohub,2013-10-18 14:18:00,
2013-10-18 10:23:00,78.6,72.7,29.96,WSW,250,0.0,2.0,82,0.00,,,0.00,503.0,meteohub,2013-10-18 14:23:00,
2013-10-18 10:28:00,79.0,72.7,29.96,WSW,247,0.0,2.0,81,0.00,,,0.00,515.0,meteohub,2013-10-18 14:28:00,
2013-10-18 10:33:00,79.3,72.7,29.96,SSW,206,0.0,2.0,80,0.00,,,0.00,527.0,meteohub,2013-10-18 14:33:00,
2013-10-18 10:38:00,79.7,72.7,29.96,SE,144,0.0,2.0,79,0.00,,,0.00,541.0,meteohub,2013-10-18 14:38:00,
2013-10-18 10:43:00,80.1,72.5,29.96,SW,227,0.0,5.0,78,0.00,,,0.00,554.0,meteohub,2013-10-18 14:43:00,
2013-10-18 10:48:00,80.1,72.5,29.96,SSE,156,2.0,5.0,78,0.00,,,0.00,571.0,meteohub,2013-10-18 14:48:00,
2013-10-18 10:53:00,80.4,73.2,29.96,SSW,197,0.0,2.0,79,0.00,,,0.00,580.0,meteohub,2013-10-18 14:53:00,
2013-10-18 10:58:00,81.0,72.3,29.96,SSW,207,0.0,2.0,75,0.00,,,0.00,594.0,meteohub,2013-10-18 14:58:00,
2013-10-18 11:03:00,81.3,73.0,29.96,ENE,67,0.0,5.0,76,0.00,,,0.00,605.0,meteohub,2013-10-18 15:03:00,
2013-10-18 11:08:00,81.7,72.5,29.95,SSW,201,0.0,5.0,74,0.00,,,0.00,613.0,meteohub,2013-10-18 15:08:00,
2013-10-18 11:13:00,81.9,71.6,29.96,ESE,114,1.0,5.0,71,0.00,,,0.00,628.0,meteohub,2013-10-18 15:13:00,
2013-10-18 11:18:00,82.0,72.5,29.95,SE,129,0.0,5.0,73,0.00,,,0.00,635.0,meteohub,2013-10-18 15:18:00,
2013-10-18 11:23:00,82.0,71.2,29.96,SSW,201,0.0,5.0,70,0.00,,,0.00,645.0,meteohub,2013-10-18 15:23:00,
2013-10-18 11:28:00,82.2,71.4,29.96,SSE,150,0.0,7.0,70,0.00,,,0.00,656.0,meteohub,2013-10-18 15:28:00,
2013-10-18 11:33:00,82.6,72.1,29.95,ESE,103,0.0,7.0,71,0.00,,,0.00,664.0,meteohub,2013-10-18 15:33:00,
2013-10-18 11:38:00,83.1,72.3,29.95,ESE,103,0.0,7.0,70,0.00,,,0.00,675.0,meteohub,2013-10-18 15:38:00,
2013-10-18 11:43:00,83.1,72.0,29.95,South,182,1.0,4.0,69,0.00,,,0.00,679.0,meteohub,2013-10-18 15:43:00,
2013-10-18 11:48:00,83.3,72.9,29.95,SE,146,0.0,4.0,71,0.00,,,0.00,689.0,meteohub,2013-10-18 15:48:00,
2013-10-18 11:53:00,83.3,72.1,29.95,SW,217,0.0,4.0,69,0.00,,,0.00,700.0,meteohub,2013-10-18 15:53:00,
2013-10-18 11:58:00,83.1,72.0,29.95,SW,231,0.0,7.0,69,0.00,,,0.00,701.0,meteohub,2013-10-18 15:58:00,
2013-10-18 12:03:00,83.3,71.6,29.94,WSW,249,0.0,7.0,68,0.00,,,0.00,710.0,meteohub,2013-10-18 16:03:00,
2013-10-18 12:08:00,83.5,71.4,29.94,SE,128,0.0,7.0,67,0.00,,,0.00,715.0,meteohub,2013-10-18 16:08:00,
2013-10-18 12:14:00,83.5,70.9,29.94,WNW,284,7.0,7.0,66,0.00,,,0.00,742.0,meteohub,2013-10-18 16:14:00,
2013-10-18 12:19:00,82.9,70.3,29.94,ESE,118,0.0,8.0,66,0.00,,,0.00,737.0,meteohub,2013-10-18 16:19:00,
2013-10-18 12:24:00,83.3,71.6,29.94,NW,325,2.0,9.0,68,0.00,,,0.00,744.0,meteohub,2013-10-18 16:24:00,
2013-10-18 12:29:00,83.1,71.4,29.93,South,186,2.0,9.0,68,0.00,,,0.00,779.0,meteohub,2013-10-18 16:29:00,
2013-10-18 12:34:00,83.5,71.4,29.93,West,277,0.0,5.0,67,0.00,,,0.00,747.0,meteohub,2013-10-18 16:34:00,
2013-10-18 12:39:00,83.7,71.6,29.93,WNW,289,0.0,6.0,67,0.00,,,0.00,758.0,meteohub,2013-10-18 16:39:00,
2013-10-18 12:44:00,83.8,72.1,29.93,ESE,123,0.0,6.0,68,0.00,,,0.00,765.0,meteohub,2013-10-18 16:44:00,
2013-10-18 12:49:00,84.0,71.4,29.93,SSE,161,2.0,6.0,66,0.00,,,0.00,800.0,meteohub,2013-10-18 16:49:00,
2013-10-18 12:54:00,83.8,70.9,29.93,SSW,209,3.0,6.0,65,0.00,,,0.00,803.0,meteohub,2013-10-18 16:54:00,
2013-10-18 12:59:00,84.0,71.1,29.93,WNW,298,0.0,6.0,65,0.00,,,0.00,559.0,meteohub,2013-10-18 16:59:00,
2013-10-18 13:04:00,83.7,70.7,29.92,SSE,157,0.0,6.0,65,0.00,,,0.00,199.0,meteohub,2013-10-18 17:04:00,
2013-10-18 13:09:00,83.8,71.2,29.92,SSE,163,0.0,6.0,66,0.00,,,0.00,828.0,meteohub,2013-10-18 17:09:00,
2013-10-18 13:14:00,84.4,71.2,29.92,SW,236,1.0,7.0,65,0.00,,,0.00,828.0,meteohub,2013-10-18 17:14:00,
2013-10-18 13:19:00,84.7,72.1,29.92,NW,309,6.0,13.0,66,0.00,,,0.00,817.0,meteohub,2013-10-18 17:19:00,
2013-10-18 13:24:00,84.7,72.1,29.91,SSW,207,0.0,13.0,66,0.00,,,0.00,821.0,meteohub,2013-10-18 17:24:00,
2013-10-18 13:29:00,84.7,71.2,29.91,WNW,292,1.0,13.0,64,0.00,,,0.00,835.0,meteohub,2013-10-18 17:29:00,
2013-10-18 13:34:00,84.7,71.6,29.91,West,281,1.0,9.0,65,0.00,,,0.00,823.0,meteohub,2013-10-18 17:34:00,
2013-10-18 13:35:00,84.7,71.6,29.91,SSW,197,0.0,9.0,65,0.00,,,0.00,816.0,meteohub,2013-10-18 17:35:00,
2013-10-18 13:40:00,84.9,71.8,29.91,SSW,200,4.0,7.0,65,0.00,,,0.00,821.0,meteohub,2013-10-18 17:40:00,
2013-10-18 13:45:00,85.3,71.8,29.91,SSW,197,2.0,7.0,64,0.00,,,0.00,823.0,meteohub,2013-10-18 17:45:00,
2013-10-18 13:50:00,85.6,72.1,29.90,SSW,209,0.0,6.0,64,0.00,,,0.00,793.0,meteohub,2013-10-18 17:50:00,
2013-10-18 13:55:00,85.8,71.8,29.90,South,173,2.0,6.0,63,0.00,,,0.00,800.0,meteohub,2013-10-18 17:55:00,
2013-10-18 14:00:00,85.8,73.2,29.90,WNW,286,0.0,6.0,66,0.00,,,0.00,557.0,meteohub,2013-10-18 18:00:00,
2013-10-18 14:05:00,86.2,72.1,29.89,ESE,114,1.0,6.0,63,0.00,,,0.00,814.0,meteohub,2013-10-18 18:05:00,
2013-10-18 14:10:00,86.4,71.8,29.89,SSE,152,1.0,6.0,62,0.00,,,0.00,809.0,meteohub,2013-10-18 18:10:00,
2013-10-18 14:15:00,86.0,71.4,29.89,West,265,1.0,6.0,62,0.00,,,0.00,803.0,meteohub,2013-10-18 18:15:00,
2013-10-18 14:20:00,85.8,72.7,29.89,WNW,302,0.0,4.0,65,0.00,,,0.00,868.0,meteohub,2013-10-18 18:20:00,
2013-10-18 14:25:00,85.8,71.8,29.88,WNW,300,0.0,4.0,63,0.00,,,0.00,860.0,meteohub,2013-10-18 18:25:00,
2013-10-18 14:30:00,86.5,72.0,29.88,South,171,1.0,6.0,62,0.00,,,0.00,865.0,meteohub,2013-10-18 18:30:00,
2013-10-18 14:35:00,86.5,72.0,29.88,NE,34,0.0,6.0,62,0.00,,,0.00,369.0,meteohub,2013-10-18 18:35:00,
2013-10-18 14:40:00,86.0,71.4,29.88,West,271,0.0,6.0,62,0.00,,,0.00,316.0,meteohub,2013-10-18 18:40:00,
2013-10-18 14:45:00,85.5,70.9,29.88,SSE,150,0.0,6.0,62,0.00,,,0.00,360.0,meteohub,2013-10-18 18:45:00,
2013-10-18 14:50:00,85.5,71.4,29.88,WNW,292,6.0,6.0,63,0.00,,,0.00,858.0,meteohub,2013-10-18 18:50:00,
2013-10-18 14:55:00,85.1,72.0,29.88,NW,304,3.0,8.0,65,0.00,,,0.00,745.0,meteohub,2013-10-18 18:55:00,
2013-10-18 15:00:00,84.9,71.4,29.88,WSW,250,1.0,8.0,64,0.00,,,0.00,824.0,meteohub,2013-10-18 19:00:00,
2013-10-18 15:05:00,85.3,71.8,29.88,WNW,288,0.0,8.0,64,0.00,,,0.00,770.0,meteohub,2013-10-18 19:05:00,
2013-10-18 15:10:00,84.9,70.5,29.88,WNW,282,0.0,7.0,62,0.00,,,0.00,643.0,meteohub,2013-10-18 19:10:00,
2013-10-18 15:15:00,84.7,71.2,29.87,WNW,282,0.0,7.0,64,0.00,,,0.00,160.0,meteohub,2013-10-18 19:15:00,
2013-10-18 15:20:00,84.9,71.8,29.87,West,273,0.0,7.0,65,0.00,,,0.00,673.0,meteohub,2013-10-18 19:20:00,
2013-10-18 15:25:00,85.6,72.1,29.87,West,279,4.0,7.0,64,0.00,,,0.00,612.0,meteohub,2013-10-18 19:25:00,
2013-10-18 15:30:00,86.0,72.0,29.87,SW,232,0.0,7.0,63,0.00,,,0.00,624.0,meteohub,2013-10-18 19:30:00,
2013-10-18 15:35:00,86.4,70.9,29.87,NE,38,1.0,5.0,60,0.00,,,0.00,580.0,meteohub,2013-10-18 19:35:00,
2013-10-18 15:40:00,86.4,71.2,29.87,West,270,0.0,5.0,61,0.00,,,0.00,599.0,meteohub,2013-10-18 19:40:00,
2013-10-18 15:45:00,86.5,71.4,29.87,SW,236,0.0,5.0,61,0.00,,,0.00,564.0,meteohub,2013-10-18 19:45:00,
2013-10-18 15:50:00,86.4,71.2,29.87,SE,128,0.0,4.0,61,0.00,,,0.00,139.0,meteohub,2013-10-18 19:50:00,
2013-10-18 15:55:00,86.2,72.1,29.87,West,281,0.0,3.0,63,0.00,,,0.00,585.0,meteohub,2013-10-18 19:55:00,
2013-10-18 16:00:00,86.5,71.4,29.87,WNW,282,0.0,3.0,61,0.00,,,0.00,582.0,meteohub,2013-10-18 20:00:00,
2013-10-18 16:05:00,87.1,72.5,29.87,WSW,250,0.0,3.0,62,0.00,,,0.00,295.0,meteohub,2013-10-18 20:05:00,
2013-10-18 16:10:00,86.9,72.3,29.87,SW,230,0.0,2.0,62,0.00,,,0.00,559.0,meteohub,2013-10-18 20:10:00,
2013-10-18 16:15:00,86.5,72.0,29.87,SSE,153,0.0,4.0,62,0.00,,,0.00,141.0,meteohub,2013-10-18 20:15:00,
2013-10-18 16:20:00,85.8,71.2,29.87,WNW,295,0.0,4.0,62,0.00,,,0.00,120.0,meteohub,2013-10-18 20:20:00,
2013-10-18 16:25:00,85.6,71.6,29.87,WNW,296,0.0,4.0,63,0.00,,,0.00,169.0,meteohub,2013-10-18 20:25:00,
2013-10-18 16:30:00,85.8,71.8,29.87,WNW,295,0.0,4.0,63,0.00,,,0.00,200.0,meteohub,2013-10-18 20:30:00,
2013-10-18 16:35:00,86.2,71.6,29.87,WNW,296,0.0,1.0,62,0.00,,,0.00,527.0,meteohub,2013-10-18 20:35:00,
2013-10-18 16:40:00,86.2,72.1,29.87,WNW,285,3.0,4.0,63,0.00,,,0.00,452.0,meteohub,2013-10-18 20:40:00,
2013-10-18 16:45:00,85.6,71.6,29.87,NW,308,0.0,7.0,63,0.00,,,0.00,204.0,meteohub,2013-10-18 20:45:00,
2013-10-18 16:50:00,85.6,71.1,29.87,SSE,161,0.0,7.0,62,0.00,,,0.00,123.0,meteohub,2013-10-18 20:50:00,
2013-10-18 16:55:00,85.5,70.9,29.87,SSE,161,0.0,7.0,62,0.00,,,0.00,107.0,meteohub,2013-10-18 20:55:00,
2013-10-18 17:00:00,85.1,72.0,29.87,SSE,161,0.0,2.0,65,0.00,,,0.00,100.0,meteohub,2013-10-18 21:00:00,
2013-10-18 17:05:00,84.2,73.4,29.87,East,99,1.0,3.0,70,0.00,,,0.00,113.0,meteohub,2013-10-18 21:05:00,
2013-10-18 17:10:00,83.1,73.2,29.87,SE,126,0.0,3.0,72,0.00,,,0.00,104.0,meteohub,2013-10-18 21:10:00,
2013-10-18 17:15:00,82.6,73.4,29.87,SE,133,0.0,3.0,74,0.00,,,0.00,116.0,meteohub,2013-10-18 21:15:00,
2013-10-18 17:20:00,82.2,73.0,29.87,SE,133,1.0,4.0,74,0.00,,,0.00,90.0,meteohub,2013-10-18 21:20:00,
2013-10-18 17:25:00,82.0,72.9,29.87,SE,142,0.0,4.0,74,0.00,,,0.00,111.0,meteohub,2013-10-18 21:25:00,
2013-10-18 17:30:00,81.9,73.2,29.88,East,92,0.0,5.0,75,0.00,,,0.00,111.0,meteohub,2013-10-18 21:30:00,
2013-10-18 17:35:00,81.7,73.0,29.88,ESE,121,0.0,5.0,75,0.00,,,0.00,123.0,meteohub,2013-10-18 21:35:00,
2013-10-18 17:40:00,81.3,72.7,29.88,ESE,114,0.0,4.0,75,0.00,,,0.00,118.0,meteohub,2013-10-18 21:40:00,
2013-10-18 17:45:00,81.5,73.6,29.88,ESE,115,0.0,4.0,77,0.00,,,0.00,79.0,meteohub,2013-10-18 21:45:00,
2013-10-18 17:50:00,81.1,72.9,29.88,SE,142,0.0,4.0,76,0.00,,,0.00,58.0,meteohub,2013-10-18 21:50:00,
2013-10-18 17:55:00,81.0,73.0,29.88,SE,144,0.0,4.0,77,0.00,,,0.00,47.0,meteohub,2013-10-18 21:55:00,
2013-10-18 18:00:00,80.8,73.2,29.88,ESE,117,2.0,4.0,78,0.00,,,0.00,33.0,meteohub,2013-10-18 22:00:00,
2013-10-18 18:05:00,80.2,73.0,29.88,ESE,117,0.0,4.0,79,0.00,,,0.00,26.0,meteohub,2013-10-18 22:05:00,
2013-10-18 18:10:00,80.1,73.4,29.88,ESE,103,2.0,4.0,80,0.00,,,0.00,30.0,meteohub,2013-10-18 22:10:00,
2013-10-18 18:15:00,79.3,73.0,29.88,SE,133,0.0,4.0,81,0.00,,,0.00,26.0,meteohub,2013-10-18 22:15:00,
2013-10-18 18:20:00,79.2,73.2,29.88,SE,133,0.0,4.0,82,0.00,,,0.00,19.0,meteohub,2013-10-18 22:20:00,
2013-10-18 18:25:00,79.0,73.4,29.88,SE,133,0.0,4.0,83,0.00,,,0.00,14.0,meteohub,2013-10-18 22:25:00,
2013-10-18 18:31:00,78.6,73.0,29.88,SE,133,0.0,2.0,83,0.00,,,0.00,11.0,meteohub,2013-10-18 22:31:00,
2013-10-18 18:36:00,78.4,73.2,29.89,East,101,0.0,0.0,84,0.00,,,0.00,9.0,meteohub,2013-10-18 22:36:00,
2013-10-18 18:41:00,78.3,73.0,29.89,ESE,102,0.0,5.0,84,0.00,,,0.00,7.0,meteohub,2013-10-18 22:41:00,
2013-10-18 18:46:00,78.1,73.2,29.89,SE,128,0.0,5.0,85,0.00,,,0.00,0.0,meteohub,2013-10-18 22:46:00,
2013-10-18 18:51:00,77.7,72.9,29.89,SE,128,0.0,3.0,85,0.00,,,0.00,0.0,meteohub,2013-10-18 22:51:00,
2013-10-18 18:56:00,77.5,73.0,29.89,SE,128,0.0,3.0,86,0.00,,,0.00,0.0,meteohub,2013-10-18 22:56:00,
2013-10-18 19:01:00,77.4,73.2,29.89,SE,128,0.0,1.0,87,0.00,,,0.00,0.0,meteohub,2013-10-18 23:01:00,
2013-10-18 19:06:00,77.2,73.0,29.89,SE,128,0.0,1.0,87,0.00,,,0.00,0.0,meteohub,2013-10-18 23:06:00,
2013-10-18 19:11:00,77.2,73.4,29.89,SE,128,0.0,1.0,88,0.00,,,0.00,0.0,meteohub,2013-10-18 23:11:00,
2013-10-18 19:16:00,77.0,73.6,29.90,SE,128,0.0,0.0,89,0.00,,,0.00,0.0,meteohub,2013-10-18 23:16:00,
2013-10-18 19:21:00,76.8,73.4,29.90,SE,128,0.0,0.0,89,0.00,,,0.00,0.0,meteohub,2013-10-18 23:21:00,
2013-10-18 19:26:00,76.8,73.6,29.90,SE,132,0.0,0.0,90,0.00,,,0.00,0.0,meteohub,2013-10-18 23:26:00,
2013-10-18 19:31:00,76.8,73.6,29.90,SE,132,0.0,2.0,90,0.00,,,0.00,0.0,meteohub,2013-10-18 23:31:00,
2013-10-18 19:36:00,76.8,73.6,29.90,SE,132,0.0,2.0,90,0.00,,,0.00,0.0,meteohub,2013-10-18 23:36:00,
2013-10-18 19:41:00,76.8,73.6,29.90,SE,132,0.0,2.0,90,0.00,,,0.00,0.0,meteohub,2013-10-18 23:41:00,
2013-10-18 19:46:00,76.8,73.9,29.90,SE,132,0.0,1.0,91,0.00,,,0.00,0.0,meteohub,2013-10-18 23:46:00,
2013-10-18 19:51:00,76.6,73.8,29.90,SE,132,0.0,1.0,91,0.00,,,0.00,0.0,meteohub,2013-10-18 23:51:00,
2013-10-18 19:56:00,76.6,73.8,29.90,SE,132,0.0,1.0,91,0.00,,,0.00,0.0,meteohub,2013-10-18 23:56:00,
2013-10-18 20:01:00,76.6,73.8,29.91,SE,132,0.0,1.0,91,0.00,,,0.00,0.0,meteohub,2013-10-19 00:01:00,
2013-10-18 20:06:00,76.6,74.1,29.91,SE,136,0.0,1.0,92,0.00,,,0.00,0.0,meteohub,2013-10-19 00:06:00,
2013-10-18 20:11:00,76.6,74.1,29.91,SE,136,0.0,3.0,92,0.00,,,0.00,0.0,meteohub,2013-10-19 00:11:00,
2013-10-18 20:16:00,76.6,74.1,29.90,SE,136,0.0,3.0,92,0.00,,,0.00,0.0,meteohub,2013-10-19 00:16:00,
2013-10-18 20:21:00,76.6,74.1,29.90,SE,136,0.0,3.0,92,0.00,,,0.00,0.0,meteohub,2013-10-19 00:21:00,
2013-10-18 20:26:00,76.6,74.1,29.90,SE,136,0.0,1.0,92,0.00,,,0.00,0.0,meteohub,2013-10-19 00:26:00,
2013-10-18 20:31:00,76.5,73.9,29.91,SE,136,0.0,0.0,92,0.00,,,0.00,0.0,meteohub,2013-10-19 00:31:00,
2013-10-18 20:36:00,76.5,73.9,29.91,SE,136,0.0,0.0,92,0.00,,,0.00,0.0,meteohub,2013-10-19 00:36:00,
2013-10-18 20:41:00,76.3,73.8,29.91,SE,136,0.0,0.0,92,0.00,,,0.00,0.0,meteohub,2013-10-19 00:41:00,
2013-10-18 20:46:00,76.1,73.9,29.90,SE,136,0.0,0.0,93,0.00,,,0.00,0.0,meteohub,2013-10-19 00:46:00,
2013-10-18 20:51:00,76.1,73.9,29.91,SE,136,0.0,0.0,93,0.00,,,0.00,0.0,meteohub,2013-10-19 00:51:00,
2013-10-18 20:56:00,75.9,73.8,29.91,SE,136,0.0,0.0,93,0.00,,,0.00,0.0,meteohub,2013-10-19 00:56:00,
2013-10-18 21:01:00,75.7,73.6,29.91,SE,136,0.0,0.0,93,0.00,,,0.00,0.0,meteohub,2013-10-19 01:01:00,
2013-10-18 21:06:00,75.7,73.9,29.91,SE,136,0.0,1.0,94,0.00,,,0.00,0.0,meteohub,2013-10-19 01:06:00,
2013-10-18 21:11:00,75.7,73.9,29.91,SE,136,0.0,1.0,94,0.00,,,0.00,0.0,meteohub,2013-10-19 01:11:00,
2013-10-18 21:16:00,75.7,73.9,29.91,SE,136,0.0,1.0,94,0.00,,,0.00,0.0,meteohub,2013-10-19 01:16:00,
2013-10-18 21:21:00,75.7,73.9,29.91,SE,136,0.0,0.0,94,0.00,,,0.00,0.0,meteohub,2013-10-19 01:21:00,
2013-10-18 21:26:00,75.7,73.9,29.91,SE,136,0.0,0.0,94,0.00,,,0.00,0.0,meteohub,2013-10-19 01:26:00,
2013-10-18 21:31:00,75.7,73.9,29.91,SE,136,0.0,0.0,94,0.00,,,0.00,0.0,meteohub,2013-10-19 01:31:00,
2013-10-18 21:36:00,75.7,73.9,29.91,SE,136,0.0,0.0,94,0.00,,,0.00,0.0,meteohub,2013-10-19 01:36:00,
2013-10-18 21:41:00,75.7,73.9,29.91,SE,136,0.0,0.0,94,0.00,,,0.00,0.0,meteohub,2013-10-19 01:41:00,
2013-10-18 21:46:00,75.9,74.1,29.91,SE,136,0.0,0.0,94,0.00,,,0.00,0.0,meteohub,2013-10-19 01:46:00,
2013-10-18 21:51:00,75.9,74.1,29.91,SE,136,0.0,0.0,94,0.00,,,0.00,0.0,meteohub,2013-10-19 01:51:00,
2013-10-18 21:56:00,75.7,73.9,29.91,SE,136,0.0,0.0,94,0.00,,,0.00,0.0,meteohub,2013-10-19 01:56:00,
2013-10-18 22:01:00,75.7,73.9,29.92,SE,136,0.0,0.0,94,0.00,,,0.00,0.0,meteohub,2013-10-19 02:01:00,
2013-10-18 22:06:00,75.7,74.1,29.92,SE,136,0.0,0.0,95,0.00,,,0.00,0.0,meteohub,2013-10-19 02:06:00,
2013-10-18 22:11:00,75.7,74.1,29.92,SE,136,0.0,0.0,95,0.00,,,0.00,0.0,meteohub,2013-10-19 02:11:00,
2013-10-18 22:16:00,75.7,74.1,29.92,SE,136,0.0,0.0,95,0.00,,,0.00,0.0,meteohub,2013-10-19 02:16:00,
2013-10-18 22:21:00,75.6,73.9,29.92,SE,136,0.0,0.0,95,0.00,,,0.00,0.0,meteohub,2013-10-19 02:21:00,
2013-10-18 22:26:00,75.6,73.8,29.92,SE,136,0.0,0.0,94,0.00,,,0.00,0.0,meteohub,2013-10-19 02:26:00,
2013-10-18 22:31:00,75.4,73.6,29.92,SE,136,0.0,0.0,94,0.00,,,0.00,0.0,meteohub,2013-10-19 02:31:00,
2013-10-18 22:37:00,75.2,73.4,29.92,SE,136,0.0,0.0,94,0.00,,,0.00,0.0,meteohub,2013-10-19 02:37:00,
2013-10-18 22:42:00,75.0,73.2,29.92,East,88,0.0,0.0,94,0.00,,,0.00,0.0,meteohub,2013-10-19 02:42:00,
2013-10-18 22:47:00,74.8,73.2,29.92,East,88,0.0,1.0,95,0.00,,,0.00,0.0,meteohub,2013-10-19 02:47:00,
2013-10-18 22:52:00,74.8,73.0,29.92,East,89,0.0,1.0,94,0.00,,,0.00,0.0,meteohub,2013-10-19 02:52:00,
2013-10-18 22:57:00,74.8,73.2,29.92,East,89,0.0,0.0,95,0.00,,,0.00,0.0,meteohub,2013-10-19 02:57:00,
2013-10-18 23:02:00,74.8,73.2,29.92,East,93,0.0,0.0,95,0.00,,,0.00,0.0,meteohub,2013-10-19 03:02:00,
2013-10-18 23:07:00,74.7,73.2,29.92,East,92,0.0,1.0,95,0.00,,,0.00,0.0,meteohub,2013-10-19 03:07:00,
2013-10-18 23:12:00,74.8,73.2,29.92,East,93,0.0,1.0,95,0.00,,,0.00,0.0,meteohub,2013-10-19 03:12:00,
2013-10-18 23:17:00,74.8,73.2,29.92,East,92,0.0,1.0,95,0.00,,,0.00,0.0,meteohub,2013-10-19 03:17:00,
2013-10-18 23:22:00,74.7,73.2,29.92,East,93,0.0,1.0,95,0.00,,,0.00,0.0,meteohub,2013-10-19 03:22:00,
2013-10-18 23:27:00,74.8,73.2,29.91,East,93,0.0,0.0,95,0.00,,,0.00,0.0,meteohub,2013-10-19 03:27:00,
2013-10-18 23:32:00,74.8,73.2,29.91,East,93,0.0,0.0,95,0.00,,,0.00,0.0,meteohub,2013-10-19 03:32:00,
2013-10-18 23:37:00,74.8,73.2,29.91,East,92,0.0,0.0,95,0.00,,,0.00,0.0,meteohub,2013-10-19 03:37:00,
2013-10-18 23:42:00,74.8,73.2,29.91,East,92,0.0,0.0,95,0.00,,,0.00,0.0,meteohub,2013-10-19 03:42:00,
2013-10-18 23:47:00,74.8,73.2,29.91,East,93,0.0,0.0,95,0.00,,,0.00,0.0,meteohub,2013-10-19 03:47:00,
2013-10-18 23:52:00,74.7,73.2,29.91,East,93,0.0,0.0,95,0.00,,,0.00,0.0,meteohub,2013-10-19 03:52:00,
2013-10-18 23:57:00,74.7,73.2,29.91,East,92,0.0,0.0,95,0.00,,,0.00,0.0,meteohub,2013-10-19 03:57:00,